514  
ASCA42 TJSJ 201610  
RWRPR  
PUERTO RICO/U.S. VIRGIN ISLANDS HOURLY WEATHER ROUNDUP  
NATIONAL WEATHER SERVICE SAN JUAN PR  
1200 PM AST WED JUN 20 2018  
 
PRZ001>002-007>008-010-201700-  
PUERTO RICO  
 
CITY SKY/WX TMP DP RH WIND PRES REMARKS
 
SAN JUAN LMM PTSUNNY 86 73 66 E9 30.04S HX 93  
AGUADILLA MOSUNNY 82 73 74 NW5 30.05F  
CEIBA MOSUNNY 84 77 79 SW9 30.07S HX 94  

 
 
VIZ001>002-201700-  
U.S. VIRGIN ISLANDS  
 
CITY SKY/WX TMP DP RH WIND PRES REMARKS
 
CHARLOTTE AMA MOSUNNY 84 73 70 SE13 30.05S HX 91  
CHRISTIANSTED PTSUNNY 86 77 74 SE14G23 30.06S HX 97  

 
 
HOURLY WEATHER ROUNDUP FOR THE NEWS MEDIA  
 
CITY SKY/WX TMP DP RH WIND PRES REMARKS
 
ORLANDO FAIR 88 73 61 SW7 29.97F HX 95  
NEW YORK PTSUNNY 76 56 49 SE9 29.89F  
NEWARK PTSUNNY 79 52 38 S10 29.87F  
CHICAGO CLOUDY 73 63 70 N6 29.88F  
HARTFORD FAIR 76 61 59 SW17 29.87F  
BOSTON PTSUNNY 74 51 44 SE7 29.85F  
DALLAS CLOUDY 82 74 76 CALM 29.90F  
PHILADELPHIA FAIR 83 64 52 CALM 29.86F  
LOS ANGELES CLOUDY 66 59 78 CALM 29.95R FOG  
WASHINGTON DC PTSUNNY 79 63 57 CALM 29.88F  
 
CLICK HERE TO GO TO PREVIOUS BULLETINS.

The Nexlab PR Page Main Text Page